| time (UTC) | temp F | wind direction | speed MPH | gust MPH | rain 1hr in | rain 24hr in | rain mn in | humidity % | barometer mb |
| 20260505074545 | 0 | 0.0 | 0.0 | 0.00 | 0.28 | 0.00 | 1010.5 | ||
| 20260505073042 | 0 | 0.0 | 0.0 | 0.00 | 0.28 | 0.00 | 1010.4 | ||
| 20260505071537 | 49 | 360 | 8.0 | 14.0 | 0.00 | 0.28 | 0.00 | 95 | 1010.4 |
| 20260505070046 | 49 | 360 | 2.0 | 10.0 | 0.00 | 0.28 | 0.00 | 95 | 1010.4 |
| 20260505064537 | 49 | 360 | 6.0 | 13.0 | 0.00 | 0.28 | 0.00 | 96 | 1010.6 |
| 20260505063034 | 49 | 360 | 7.0 | 12.0 | 0.00 | 0.28 | 0.00 | 96 | 1010.5 |
| 20260505061552 | 49 | 360 | 7.0 | 12.0 | 0.00 | 0.28 | 0.00 | 96 | 1010.7 |
| 20260505060028 | 49 | 360 | 6.0 | 14.0 | 0.00 | 0.28 | 0.00 | 96 | 1010.8 |
| 20260505054540 | 49 | 360 | 6.0 | 12.0 | 0.00 | 0.28 | 0.00 | 96 | 1010.9 |
| 20260505053026 | 49 | 360 | 3.0 | 11.0 | 0.00 | 0.28 | 0.00 | 96 | 1010.8 |
| 20260505051523 | 49 | 360 | 4.0 | 11.0 | 0.00 | 0.28 | 0.00 | 96 | 1010.6 |
| 20260505041518 | 49 | 360 | 6.0 | 11.0 | 0.00 | 0.28 | 0.00 | 96 | 1010.4 |
| 20260505040034 | 49 | 360 | 3.0 | 9.0 | 0.00 | 0.28 | 0.00 | 96 | 1010.4 |
| 20260505034523 | 49 | 360 | 4.0 | 11.0 | 0.00 | 0.28 | 0.00 | 95 | 1010.5 |
| 20260505033016 | 49 | 360 | 5.0 | 10.0 | 0.00 | 0.28 | 0.00 | 95 | 1010.4 |
| 20260505031513 | 49 | 360 | 5.0 | 11.0 | 0.00 | 0.28 | 0.00 | 95 | 1010.5 |
| 20260505030016 | 50 | 360 | 9.0 | 18.0 | 0.00 | 0.28 | 0.00 | 95 | 1010.5 |
| 20260505024510 | 50 | 360 | 5.0 | 11.0 | 0.00 | 0.28 | 0.00 | 95 | 1010.5 |
| 20260505023008 | 50 | 360 | 5.0 | 12.0 | 0.00 | 0.28 | 0.00 | 95 | 1010.4 |
| 20260505021506 | 50 | 360 | 6.0 | 12.0 | 0.00 | 0.28 | 0.00 | 95 | 1010.5 |
| 20260505020008 | 50 | 360 | 7.0 | 14.0 | 0.00 | 0.28 | 0.00 | 95 | 1010.6 |
| 20260505014503 | 51 | 360 | 7.0 | 13.0 | 0.00 | 0.28 | 0.00 | 95 | 1010.6 |
| 20260505013104 | 51 | 360 | 9.0 | 14.0 | 0.00 | 0.28 | 0.00 | 95 | 1010.6 |
| 20260505011613 | 52 | 360 | 6.0 | 12.0 | 0.00 | 0.28 | 0.00 | 95 | 1010.8 |
| 20260505010106 | 52 | 360 | 6.0 | 16.0 | 0.00 | 0.28 | 0.00 | 94 | 1010.8 |
| 20260505004554 | 52 | 360 | 7.0 | 14.0 | 0.00 | 0.28 | 0.00 | 94 | 1010.8 |
| 20260505003053 | 53 | 360 | 5.0 | 12.0 | 0.00 | 0.28 | 0.00 | 93 | 1010.9 |
| 20260505001553 | 53 | 360 | 4.0 | 15.0 | 0.00 | 0.28 | 0.00 | 93 | 1010.9 |
| 20260505000056 | 53 | 360 | 8.0 | 15.0 | 0.00 | 0.28 | 0.00 | 92 | 1011.0 |
| 20260504234548 | 54 | 360 | 7.0 | 14.0 | 0.00 | 0.28 | 0.00 | 92 | 1011.2 |
| 20260504233044 | 54 | 360 | 8.0 | 14.0 | 0.00 | 0.28 | 0.00 | 92 | 1011.2 |
| 20260504231541 | 55 | 360 | 5.0 | 12.0 | 0.00 | 0.28 | 0.00 | 92 | 1011.2 |
| 20260504230039 | 55 | 360 | 6.0 | 14.0 | 0.00 | 0.28 | 0.00 | 92 | 1011.2 |
| 20260504224538 | 55 | 360 | 4.0 | 12.0 | 0.00 | 0.28 | 0.28 | 92 | 1011.1 |
| 20260504223037 | 56 | 360 | 5.0 | 10.0 | 0.00 | 0.28 | 0.28 | 92 | 1011.3 |
| 20260504221540 | 56 | 360 | 4.0 | 11.0 | 0.00 | 0.28 | 0.28 | 92 | 1011.3 |
| 20260504220046 | 56 | 360 | 5.0 | 9.0 | 0.00 | 0.28 | 0.28 | 92 | 1011.5 |
| 20260504214537 | 56 | 360 | 2.0 | 11.0 | 0.00 | 0.28 | 0.28 | 92 | 1011.5 |
| 20260504213050 | 56 | 360 | 5.0 | 11.0 | 0.00 | 0.28 | 0.28 | 92 | 1011.6 |
| 20260504211540 | 56 | 360 | 4.0 | 10.0 | 0.00 | 0.28 | 0.28 | 92 | 1011.7 |
| 20260504210033 | 0 | 0.0 | 0.0 | 0.00 | 0.28 | 0.28 | 1011.6 | ||
| 20260504204537 | 0 | 0.0 | 0.0 | 0.00 | 0.28 | 0.28 | 1011.7 | ||
| 20260504203025 | 0 | 0.0 | 0.0 | 0.00 | 0.28 | 0.28 | 1011.8 | ||
| 20260504201523 | 57 | 360 | 8.0 | 14.0 | 0.00 | 0.28 | 0.28 | 91 | 1011.8 |
| 20260504200023 | 58 | 360 | 7.0 | 12.0 | 0.00 | 0.28 | 0.28 | 91 | 1011.7 |
| 20260504194523 | 58 | 360 | 5.0 | 10.0 | 0.00 | 0.28 | 0.28 | 91 | 1011.5 |
| 20260504193023 | 58 | 360 | 4.0 | 11.0 | 0.00 | 0.28 | 0.28 | 91 | 1011.4 |
| 20260504191525 | 59 | 360 | 3.0 | 11.0 | 0.00 | 0.28 | 0.28 | 90 | 1011.3 |
| 20260504190027 | 59 | 360 | 6.0 | 10.0 | 0.00 | 0.28 | 0.28 | 90 | 1011.2 |
| 20260504184521 | 60 | 360 | 5.0 | 12.0 | 0.00 | 0.28 | 0.28 | 89 | 1011.3 |
| 20260504183021 | 60 | 360 | 6.0 | 10.0 | 0.00 | 0.28 | 0.28 | 88 | 1011.2 |
| 20260504181521 | 60 | 360 | 5.0 | 12.0 | 0.00 | 0.28 | 0.28 | 88 | 1011.2 |
| 20260504180020 | 61 | 360 | 5.0 | 13.0 | 0.00 | 0.40 | 0.28 | 88 | 1011.1 |
| 20260504174521 | 61 | 360 | 5.0 | 10.0 | 0.00 | 0.40 | 0.28 | 87 | 1011.2 |
| 20260504173017 | 0 | 0.0 | 0.0 | 0.00 | 0.40 | 0.28 | 1011.1 | ||
| 20260504171513 | 63 | 360 | 6.0 | 11.0 | 0.00 | 0.40 | 0.28 | 84 | 1010.9 |
| 20260504140103 | 63 | 40 | 0.0 | 0.0 | 0.00 | 0.48 | 0.28 | 88 | 1011.6 |
| 20260504120103 | 61 | 360 | 1.0 | 6.0 | 0.28 | 0.56 | 0.28 | 91 | 1012.2 |
| 20260504081514 | 57 | 360 | 1.0 | 6.0 | 0.00 | 0.28 | 0.00 | 99 | 1012.2 |